[Date Prev][Date Next][Thread Prev][Thread Next] - [Date Index][Thread Index][Author Index]
2 Line ISS Keps 3-31
- Subject: [sarex] 2 Line ISS Keps 3-31
- From: "Dave Larsen PhD" <doc@xxxxxxxxxxx>
- Date: Sun, 31 Mar 2002 01:17:28 -0800
ISS
1 25544U 98067A 02090.15390881 .00047993 00000-0 60284-3 0 2477
2 25544 51.6370 85.0415 0003508 346.6003 105.8466 15.59204974191866
----
Via the sarex mailing list at AMSAT.ORG courtesy of AMSAT-NA.
To unsubscribe, send "unsubscribe sarex" to Majordomo@amsat.org
AMSAT Home